| time (UTC) | temp C | wind direction | speed KPH | gust KPH | rain 1hr cm | rain 24hr cm | rain mn cm | humidity % | barometer mb |
| 20260504044559 | 22 | 115 | 9.7 | 17.7 | 0.00 | 0.00 | 0.00 | 61 | 1019.6 |
| 20260504044505 | 22 | 147 | 9.7 | 17.7 | 0.00 | 0.00 | 0.00 | 61 | 1019.6 |
| 20260504043009 | 22 | 137 | 8.0 | 24.1 | 0.00 | 0.00 | 0.00 | 60 | 1019.5 |
| 20260504041509 | 22 | 119 | 9.7 | 17.7 | 0.00 | 0.00 | 0.00 | 60 | 1019.7 |
| 20260504040014 | 22 | 128 | 12.9 | 19.3 | 0.00 | 0.00 | 0.00 | 58 | 1019.7 |
| 20260504034518 | 22 | 159 | 9.7 | 19.3 | 0.00 | 0.00 | 0.00 | 59 | 1019.6 |
| 20260504033023 | 22 | 119 | 11.3 | 22.5 | 0.00 | 0.00 | 0.00 | 59 | 1019.5 |
| 20260504031529 | 22 | 119 | 14.5 | 22.5 | 0.00 | 0.00 | 0.00 | 58 | 1019.5 |
| 20260504030039 | 22 | 119 | 9.7 | 20.9 | 0.00 | 0.00 | 0.00 | 59 | 1019.5 |
| 20260504024539 | 22 | 120 | 16.1 | 25.7 | 0.00 | 0.00 | 0.00 | 58 | 1019.5 |
| 20260504023042 | 22 | 121 | 11.3 | 19.3 | 0.00 | 0.00 | 0.00 | 58 | 1019.5 |
| 20260504021547 | 22 | 121 | 12.9 | 24.1 | 0.00 | 0.00 | 0.00 | 57 | 1019.2 |
| 20260504020040 | 22 | 127 | 11.3 | 25.7 | 0.00 | 0.00 | 0.00 | 56 | 1019.0 |
| 20260504014543 | 22 | 119 | 9.7 | 20.9 | 0.00 | 0.00 | 0.00 | 56 | 1018.9 |
| 20260504013052 | 23 | 121 | 11.3 | 20.9 | 0.00 | 0.00 | 0.00 | 56 | 1018.9 |
| 20260504011557 | 23 | 128 | 14.5 | 20.9 | 0.00 | 0.00 | 0.00 | 55 | 1018.8 |
| 20260504011500 | 23 | 120 | 14.5 | 20.9 | 0.00 | 0.00 | 0.00 | 56 | 1018.8 |
| 20260504010003 | 23 | 118 | 11.3 | 19.3 | 0.00 | 0.00 | 0.00 | 54 | 1018.9 |
| 20260504004555 | 23 | 123 | 12.9 | 17.7 | 0.00 | 0.00 | 0.00 | 54 | 1019.0 |
| 20260504004509 | 23 | 119 | 12.9 | 17.7 | 0.00 | 0.00 | 0.00 | 54 | 1019.0 |
| 20260504003101 | 23 | 121 | 14.5 | 20.9 | 0.00 | 0.00 | 0.00 | 54 | 1019.1 |
| 20260504001602 | 24 | 118 | 12.9 | 24.1 | 0.00 | 0.00 | 0.00 | 53 | 1019.0 |
| 20260504000056 | 24 | 121 | 16.1 | 22.5 | 0.00 | 0.00 | 0.00 | 53 | 1019.0 |
| 20260503234551 | 24 | 117 | 11.3 | 22.5 | 0.00 | 0.00 | 0.00 | 52 | 1019.0 |
| 20260503233054 | 24 | 108 | 9.7 | 22.5 | 0.00 | 0.00 | 0.00 | 53 | 1019.2 |
| 20260503231555 | 25 | 120 | 12.9 | 22.5 | 0.00 | 0.00 | 0.00 | 51 | 1019.3 |
| 20260503230112 | 25 | 118 | 12.9 | 24.1 | 0.00 | 0.00 | 0.00 | 52 | 1019.4 |
| 20260503224504 | 25 | 121 | 16.1 | 22.5 | 0.00 | 0.00 | 0.00 | 51 | 1019.7 |
| 20260503223008 | 25 | 119 | 14.5 | 22.5 | 0.00 | 0.00 | 0.00 | 51 | 1019.7 |
| 20260503221506 | 25 | 130 | 14.5 | 24.1 | 0.00 | 0.00 | 0.00 | 52 | 1019.6 |
| 20260503220012 | 25 | 119 | 11.3 | 22.5 | 0.00 | 0.00 | 0.00 | 52 | 1020.1 |
| 20260503214514 | 25 | 121 | 16.1 | 24.1 | 0.00 | 0.00 | 0.00 | 51 | 1020.3 |
| 20260503213006 | 25 | 105 | 16.1 | 24.1 | 0.00 | 0.00 | 0.00 | 52 | 1020.6 |
| 20260503211514 | 25 | 101 | 16.1 | 25.7 | 0.00 | 0.00 | 0.00 | 52 | 1020.8 |
| 20260503210017 | 25 | 111 | 12.9 | 24.1 | 0.00 | 0.00 | 0.00 | 51 | 1020.8 |
| 20260503204526 | 25 | 106 | 16.1 | 25.7 | 0.00 | 0.00 | 0.00 | 51 | 1021.0 |
| 20260503203025 | 26 | 112 | 12.9 | 24.1 | 0.00 | 0.00 | 0.00 | 50 | 1021.1 |
| 20260503201524 | 26 | 110 | 11.3 | 20.9 | 0.00 | 0.00 | 0.00 | 49 | 1021.4 |
| 20260503200026 | 26 | 100 | 14.5 | 25.7 | 0.00 | 0.00 | 0.00 | 49 | 1021.7 |
| 20260503194529 | 26 | 99 | 11.3 | 24.1 | 0.00 | 0.00 | 0.00 | 49 | 1021.9 |
| 20260503193027 | 25 | 114 | 12.9 | 22.5 | 0.00 | 0.00 | 0.00 | 48 | 1022.0 |
| 20260503191528 | 26 | 111 | 12.9 | 22.5 | 0.00 | 0.00 | 0.00 | 49 | 1022.2 |
| 20260503190040 | 26 | 128 | 12.9 | 19.3 | 0.00 | 0.00 | 0.00 | 46 | 1022.3 |
| 20260503184536 | 25 | 111 | 12.9 | 20.9 | 0.00 | 0.00 | 0.00 | 46 | 1022.6 |
| 20260503183022 | 25 | 98 | 11.3 | 19.3 | 0.00 | 0.00 | 0.00 | 45 | 1022.8 |
| 20260503181544 | 26 | 112 | 11.3 | 19.3 | 0.00 | 0.00 | 0.00 | 46 | 1023.0 |
| 20260503180040 | 26 | 107 | 11.3 | 16.1 | 0.00 | 0.00 | 0.00 | 45 | 1023.2 |
| 20260503174530 | 25 | 96 | 11.3 | 24.1 | 0.00 | 0.00 | 0.00 | 46 | 1023.3 |
| 20260503173031 | 26 | 102 | 8.0 | 20.9 | 0.00 | 0.00 | 0.00 | 46 | 1023.5 |
| 20260503171539 | 26 | 110 | 11.3 | 19.3 | 0.00 | 0.00 | 0.00 | 45 | 1023.6 |
| 20260503081558 | 21 | 11 | 1.6 | 4.8 | 0.00 | 0.00 | 0.00 | 66 | 1022.1 |
| 20260503081501 | 20 | 11 | 1.6 | 4.8 | 0.00 | 0.00 | 0.00 | 66 | 1022.1 |
| 20260503071517 | 20 | 11 | 3.2 | 8.0 | 0.00 | 0.00 | 0.00 | 65 | 1022.2 |